Regional Weather Roundup
Issued by NWS

Home | Current Version | Previous Version | Text Only | Print | Product List | Glossary Off
Versions: 1 2 3 4 5 6 7 8 9 10 11 12 13 14 15 16 17 18 19 20 21 22 23 24 25 26 27 28 29 30 31 32 33 34 35 36 37 38 39 40 41 42 43 44 45 46 47 48 49 50

000
ASUS43 KDMX 201007
RWRIA

WEATHER ROUNDUP FOR IOWA
NATIONAL WEATHER SERVICE DES MOINES IA
500 AM CDT SAT SEP 20 2014

NOTE: "FAIR" INDICATES FEW OR NO CLOUDS BELOW 12,000 FEET WITH NO
SIGNIFICANT WEATHER AND/OR OBSTRUCTIONS TO VISIBILITY.

* - THESE STATIONS ARE NOT NWS STATIONS...THUS NOT UNDER NWS
QUALITY CONTROL.  THEY ALSO DO NOT REPORT WEATHER SUCH
AS PRECIPITATION OR FOG.

IAZ001>003-012>014-020>022-031>034-043>046-201100-
   NORTHWEST IOWA

CITY           SKY/WX    TMP DP  RH WIND       PRES   REMARKS
CARROLL *      MOCLDY    64  63  94 S8        29.85S
CHEROKEE *     CLOUDY    64  64 100 S3        29.82R
DENISON *      MOCLDY    70  68  94 S9        29.82S
LE MARS *      CLOUDY    64  64 100 CALM      29.83R
ORANGE CITY *  CLEAR     64  61  88 SW3       29.83R
SHELDON *      CLEAR     61  61 100 SW5       29.81R
SIOUX CITY     MOCLDY    63  62  97 N6        29.83R
SPENCER        CLOUDY    65  62  90 W6        29.81R
STORM LAKE *   MOCLDY    64  64 100 SW7       29.81F
$$

IAZ055>058-069>071-079>083-090>094-201100-
   SOUTHWEST IOWA

CITY           SKY/WX    TMP DP  RH WIND       PRES   REMARKS
ATLANTIC *     LGT RAIN  66  64  94 SE6       29.90R
AUDUBON *      LGT RAIN  64  59  82 SE5       29.89F
CLARINDA *     MOCLDY    68  68 100 N6G13     29.92R FOG
COUNCIL BLFS * HVY RAIN  70  70 100 S8        29.87R
CRESTON *      CLOUDY    68  68 100 NW5       29.93R
HARLAN  *      CLOUDY    64  64 100 S9        29.90F
LAMONI         CLEAR     67  65  93 SW10      29.90R
RED OAK *      CLOUDY    70  68  94 CALM      29.92R FOG
SHENANDOAH *   MOCLDY    70  68  94 NE5       29.91R
$$

IAZ047>049-059>061-072>074-084-201100-
   CENTRAL IOWA

CITY           SKY/WX    TMP DP  RH WIND       PRES   REMARKS
AMES           CLOUDY    66  65  96 NW9G28    29.85F
ANKENY *       LGT RAIN  68  64  88 CALM      29.89F
CHARITON *     CLOUDY    70  66  88 NW8       29.94R
DES MOINES     LGT RAIN  71  64  78 CALM      29.91R
GRINNELL*      LGT RAIN  68  64  88 W9        29.92R
KNOXVILLE *    CLOUDY    70  66  88 CALM      29.92S
MARSHALLTOWN   TSTM      68  65  90 S10       29.87S
PELLA *        CLOUDY    68  66  94 CALM      29.94R
PERRY *        HVY RAIN  66  64  94 SW10      29.89R
$$

IAZ004>006-015-016-023>025-035-036-201100-
   NORTH CENTRAL IOWA

CITY           SKY/WX    TMP DP  RH WIND       PRES   REMARKS
ALGONA *       MOCLDY    64  64 100 S10       29.81S
CLARION *        N/A     64  64 100 SW10G17   29.83R
ESTHERVILLE    CLOUDY    63  63 100 SW6       29.80R
FORT DODGE *   CLOUDY    64  63  94 SW6       29.85S
MASON CITY     CLOUDY    64  61  90 SW14      29.82R
FOREST CITY *  CLEAR     63  63 100 SW9       29.81S
IOWA FALLS *     N/A     66  63  88 SW13G21   29.86R
$$

IAZ007>011-017>019-026>030-037>042-050>054-066-201100-
   NORTHEAST IOWA

CITY           SKY/WX    TMP DP  RH WIND       PRES   REMARKS
CEDAR RAPIDS   CLOUDY    64  64 100 SW8       29.89S FOG
CHARLES CITY * MOCLDY    64  63  94 SW10      29.81F
CLINTON *      CLOUDY    64  57  77 SW8       29.93F
DECORAH *      MOCLDY    66  64  94 SW8       29.76F
DUBUQUE        CLOUDY    62  60  93 S7        29.88F
MONTICELLO *   MOCLDY    66  64  94 S5        29.87F
OELWEIN *      LGT RAIN  64  64 100 S7G15     29.84F
WATERLOO       RAIN      66  62  87 S18       29.85R
$$

IAZ064-065-067-068-078-201100-
   EAST CENTRAL IOWA

CITY           SKY/WX    TMP DP  RH WIND       PRES   REMARKS
DAVENPORT      CLOUDY    64  58  80 W7        29.92R
IOWA CITY      CLOUDY    65  63  93 S5        29.91F
MT. PLEASANT * MOCLDY    64  61  88 S6        29.91S
MUSCATINE *    MOCLDY    64  61  88 NW5       29.94R
QUAD CITIES    CLOUDY    65  59  81 NW3       29.92R
$$

IAZ062-063-075>077-085>089-095>099-201100-
   SOUTHEAST IOWA

CITY           SKY/WX    TMP DP  RH WIND       PRES   REMARKS
BURLINGTON     PTCLDY    63  60  90 S8        29.91F
FAIRFIELD *    PTCLDY    64  61  88 NW9G15    29.95R
FORT MADISON * CLEAR     66  63  88 S8        29.93S
KEOKUK *       CLEAR     63  61  94 SW8       29.92S
OSKALOOSA *    CLOUDY    66  64  94 CALM      29.94R
CENTERVILLE *  CLEAR     66  66 100 SW8       29.92R
OTTUMWA        CLOUDY    66  64  93 N7        29.94R
WASHINGTON *   CLOUDY    66  64  94 NW9       29.95R
$$

ABBREVIATIONS USED IN REMARKS
   TC - TEMPERATURES IN CELSIUS
  WCI - WIND CHILL INDEX
   HX - HEAT INDEX
  VSB - VISIBILITY
$$



USA.gov is the U.S. government's official web portal to all federal, state and local government web resources and services.